Simultaneous Nadir Overpasses (SNOs) Predictions

Prediction of SNOs between GOES-15 and FY3D Satellite Orbit:

Table of predicted SNOs for the next 14.0 days since TLE Epoch: 9/21/2024
Index Date Time (GOES-15) GOES-15 Lat,Lon FY3D Lat,Lon Distance(km) Time Diff (sec)
1 09/22/2024 10:38:53 -0.26, 61.32 -0.58, 59.96 154.42 80
2 09/23/2024 10:22:55 -0.28, 61.31 0.46, 64.48 361.83 80
3 09/24/2024 22:44:53 0.24, 61.30 0.73, 59.21 238.92 80
4 09/25/2024 22:23:35 0.26, 61.30 -0.32, 63.72 276.30 80
5 09/27/2024 10:45:41 -0.22, 61.32 -0.90, 58.42 331.15 80
6 09/28/2024 10:29:44 -0.23, 61.31 0.16, 62.93 185.01 80
7 09/29/2024 22:51:41 0.20, 61.29 1.02, 57.66 414.01 80
8 09/30/2024 22:30:23 0.22, 61.29 0.01, 62.18 101.39 80
9 10/03/2024 10:36:31 -0.20, 61.32 -0.19, 61.39 8.63 80
